sat.trackr.live / text

‹ back to catalog

STARLINK-4777

NORAD 53847 · 2022-114AF

PAYLOAD ACTIVE UNKNOWN

§ Identity

Operator
Country
US
Launch date
2022-09-19
Launch site
AFETR
Launch vehicle
Mass (kg)
RCS (m²)

Purposes: comms

External: N2YO · Heavens-Above · Gunter

§ Orbital elements

Epoch: 2026-05-24T17:46:05.679264Z

Period
95.44 min
Inclination
53.2149°
Eccentricity
0.0001576
Mean motion
15.08842460 rev/d
Perigee alt
538.6 km
Apogee alt
540.8 km
Semi-major
6,917.9 km
B*
2.6343e-6
RAAN
312.6470°
Arg perigee
99.8999°
Mean anomaly
260.2171°
Rev number
20,445

§ Raw data

STARLINK-47771 53847U 22114AF  26144.74034351 -.00000246  00000+0  26343-5 0  99962 53847  53.2149 312.6470 0001576  99.8999 260.2171 15.08842460204450

JSON: /api/v1/satellites/53847 · /tle

For live sub-satellite position, see the globe view (requires WebGL).

§ Visibility from observer

Set your observer location to see the next 7 days of passes ≥ 10°. The values pass through the URL so the page stays shareable.

No JS? Fill the form by hand. The geolocation button needs JavaScript.